When you browse on this site, cookies collect data to enhance your experience and personalize the content and advertising you see.
Visit our Privacy Policy to learn more. By continuing to use the site, you agree to this use of cookies and data.
  • Em Portugal
  • Lista de países
  • Para 7 dias
  • Temperatura da água
  • Mapa do tempo
  • Widgets de tempo
  • user-avatar
    Iniciar Sessão

    Previsão horária em Borzhomi

    Hoje, 25 Maio, Segunda-feira

    Tempo Temperatura Precipitação Vento Pressão Humidade
    00:00 +8°C° 0.6 mm 1 m/s 667 mmHg 97%
    01:00 +7°C° 0.3 mm 2 m/s 667 mmHg 97%
    02:00 +8°C° 0.3 mm 2 m/s 667 mmHg 97%
    03:00 +8°C° 0 mm 2 m/s 666 mmHg 97%
    04:00 +8°C° 0 mm 2 m/s 666 mmHg 96%
    05:00 +9°C° 0 mm 2 m/s 665 mmHg 95%
    06:00 +10°C° 0 mm 2 m/s 665 mmHg 95%
    07:00 +10°C° 0.9 mm 2 m/s 665 mmHg 94%
    08:00 +11°C° 0.9 mm 3 m/s 665 mmHg 94%
    09:00 +12°C° 0 mm 3 m/s 666 mmHg 91%
    10:00 +12°C° 2.6 mm 3 m/s 666 mmHg 92%
    11:00 +11°C° 2.6 mm 3 m/s 666 mmHg 93%
    12:00 +11°C° 2.6 mm 3 m/s 666 mmHg 95%
    13:00 +11°C° 2.1 mm 3 m/s 665 mmHg 95%
    14:00 +12°C° 2.1 mm 2 m/s 665 mmHg 94%
    15:00 +10°C° 0 mm 2 m/s 665 mmHg 92%
    16:00 +10°C° 0.7 mm 2 m/s 665 mmHg 94%
    17:00 +9°C° 0.7 mm 2 m/s 665 mmHg 96%
    18:00 +9°C° 0.7 mm 2 m/s 665 mmHg 98%
    19:00 +9°C° 2 mm 1 m/s 665 mmHg 98%
    20:00 +9°C° 2 mm 1 m/s 666 mmHg 98%
    21:00 +8°C° 2 mm 1 m/s 666 mmHg 99%
    22:00 +8°C° 0.3 mm 1 m/s 666 mmHg 99%
    23:00 +8°C° 0.3 mm 1 m/s 667 mmHg 99%

    Amanhã, 26 Maio, Terça-feira

    Tempo Temperatura Precipitação Vento Pressão Humidade
    00:00 +8°C° 0.3 mm 1 m/s 667 mmHg 98%
    01:00 +7°C° 0.1 mm 0 m/s 667 mmHg 98%
    02:00 +7°C° 0.1 mm 0 m/s 667 mmHg 98%
    03:00 +7°C° 0.1 mm 0 m/s 667 mmHg 98%
    04:00 +7°C° 0 mm 0 m/s 668 mmHg 97%
    05:00 +8°C° 0 mm 1 m/s 668 mmHg 96%
    06:00 +9°C° 0 mm 1 m/s 668 mmHg 95%
    07:00 +11°C° 0 mm 1 m/s 669 mmHg 86%
    08:00 +13°C° 0 mm 1 m/s 669 mmHg 76%
    09:00 +15°C° 0 mm 1 m/s 670 mmHg 67%
    10:00 +18°C° 0 mm 1 m/s 670 mmHg 60%
    11:00 +20°C° 0 mm 1 m/s 670 mmHg 53%
    12:00 +20°C° 0 mm 2 m/s 670 mmHg 46%
    13:00 +22°C° 0 mm 1 m/s 670 mmHg 45%
    14:00 +22°C° 0 mm 1 m/s 670 mmHg 44%
    15:00 +23°C° 0 mm 1 m/s 670 mmHg 43%
    16:00 +22°C° 0 mm 1 m/s 670 mmHg 50%
    17:00 +21°C° 0 mm 1 m/s 669 mmHg 56%
    18:00 +20°C° 0 mm 1 m/s 669 mmHg 63%
    19:00 +18°C° 0 mm 1 m/s 669 mmHg 69%
    20:00 +15°C° 0 mm 2 m/s 669 mmHg 75%
    21:00 +13°C° 0 mm 2 m/s 668 mmHg 82%
    22:00 +13°C° 0 mm 2 m/s 668 mmHg 82%
    23:00 +13°C° 0 mm 2 m/s 668 mmHg 83%

    Depois de amanhã, 27 Maio, Quarta-feira

    Tempo Temperatura Precipitação Vento Pressão Humidade
    00:00 +12°C° 0 mm 2 m/s 668 mmHg 83%
    01:00 +12°C° 0 mm 2 m/s 668 mmHg 82%
    02:00 +11°C° 0 mm 3 m/s 668 mmHg 80%
    03:00 +11°C° 0 mm 3 m/s 668 mmHg 78%
    04:00 +11°C° 0 mm 3 m/s 668 mmHg 79%
    05:00 +12°C° 0 mm 3 m/s 669 mmHg 79%
    06:00 +12°C° 0 mm 3 m/s 669 mmHg 79%
    07:00 +16°C° 0 mm 3 m/s 669 mmHg 71%
    08:00 +18°C° 0 mm 3 m/s 670 mmHg 63%
    09:00 +20°C° 0 mm 3 m/s 670 mmHg 55%
    10:00 +22°C° 0 mm 3 m/s 671 mmHg 51%
    11:00 +24°C° 0 mm 3 m/s 671 mmHg 47%
    12:00 +26°C° 0 mm 3 m/s 671 mmHg 43%
    13:00 +26°C° 0 mm 3 m/s 671 mmHg 43%
    14:00 +26°C° 0 mm 3 m/s 670 mmHg 43%
    15:00 +27°C° 0 mm 3 m/s 670 mmHg 42%
    16:00 +25°C° 0 mm 2 m/s 670 mmHg 50%
    17:00 +24°C° 0 mm 2 m/s 669 mmHg 58%
    18:00 +23°C° 0 mm 2 m/s 669 mmHg 66%
    19:00 +20°C° 0 mm 2 m/s 669 mmHg 69%
    20:00 +18°C° 0 mm 2 m/s 668 mmHg 73%
    21:00 +16°C° 0 mm 2 m/s 668 mmHg 76%
    22:00 +16°C° 0 mm 2 m/s 668 mmHg 73%
    23:00 +15°C° 0 mm 2 m/s 668 mmHg 71%

    28 Maio, Quinta-feira

    Tempo Temperatura Precipitação Vento Pressão Humidade
    00:00 +15°C° 0 mm 2 m/s 668 mmHg 68%
    01:00 +15°C° 0 mm 2 m/s 667 mmHg 67%
    02:00 +15°C° 0 mm 2 m/s 667 mmHg 67%
    03:00 +14°C° 0 mm 2 m/s 667 mmHg 66%
    04:00 +15°C° 0 mm 2 m/s 667 mmHg 66%
    05:00 +15°C° 0 mm 2 m/s 667 mmHg 65%
    06:00 +16°C° 0 mm 2 m/s 667 mmHg 65%
    07:00 +18°C° 0 mm 2 m/s 667 mmHg 58%
    08:00 +21°C° 0 mm 2 m/s 668 mmHg 50%
    09:00 +25°C° 0 mm 2 m/s 668 mmHg 43%
    10:00 +26°C° 0 mm 2 m/s 668 mmHg 39%
    11:00 +28°C° 0 mm 2 m/s 669 mmHg 35%
    12:00 +29°C° 0 mm 1 m/s 669 mmHg 32%
    13:00 +29°C° 0 mm 1 m/s 668 mmHg 32%
    14:00 +30°C° 0 mm 1 m/s 668 mmHg 32%
    15:00 +30°C° 0 mm 1 m/s 668 mmHg 32%
    16:00 +27°C° 0.2 mm 1 m/s 667 mmHg 46%
    17:00 +25°C° 0.2 mm 1 m/s 667 mmHg 59%
    18:00 +23°C° 0.2 mm 1 m/s 666 mmHg 72%
    19:00 +21°C° 0.7 mm 1 m/s 666 mmHg 78%
    20:00 +19°C° 0.7 mm 1 m/s 666 mmHg 83%
    21:00 +16°C° 0.7 mm 1 m/s 666 mmHg 89%
    22:00 +16°C° 0.1 mm 1 m/s 666 mmHg 87%
    23:00 +16°C° 0.1 mm 1 m/s 666 mmHg 85%

    29 Maio, Sexta-feira

    Tempo Temperatura Precipitação Vento Pressão Humidade
    00:00 +15°C° 0.1 mm 1 m/s 665 mmHg 84%
    01:00 +15°C° 0 mm 1 m/s 665 mmHg 83%
    02:00 +15°C° 0 mm 1 m/s 665 mmHg 83%
    03:00 +15°C° 0 mm 1 m/s 664 mmHg 82%
    04:00 +15°C° 0 mm 1 m/s 664 mmHg 82%
    05:00 +15°C° 0 mm 1 m/s 664 mmHg 82%
    06:00 +16°C° 0 mm 1 m/s 664 mmHg 82%
    07:00 +19°C° 0 mm 1 m/s 664 mmHg 74%
    08:00 +22°C° 0 mm 1 m/s 664 mmHg 67%
    09:00 +24°C° 0 mm 1 m/s 664 mmHg 59%
    10:00 +25°C° 0.2 mm 2 m/s 664 mmHg 57%
    11:00 +26°C° 0.2 mm 2 m/s 664 mmHg 54%
    12:00 +27°C° 0.2 mm 3 m/s 664 mmHg 52%
    13:00 +25°C° 1 mm 3 m/s 663 mmHg 58%
    14:00 +24°C° 1 mm 2 m/s 663 mmHg 64%
    15:00 +21°C° 1 mm 2 m/s 662 mmHg 71%
    16:00 +19°C° 0.9 mm 3 m/s 662 mmHg 78%
    17:00 +17°C° 0.9 mm 3 m/s 662 mmHg 86%
    18:00 +14°C° 0.9 mm 3 m/s 662 mmHg 94%
    19:00 +15°C° 0.1 mm 2 m/s 662 mmHg 95%
    20:00 +14°C° 0.1 mm 2 m/s 663 mmHg 96%
    21:00 +13°C° 0.1 mm 2 m/s 663 mmHg 97%
    22:00 +13°C° 0 mm 1 m/s 663 mmHg 97%
    23:00 +12°C° 0 mm 1 m/s 664 mmHg 97%

    30 Maio, Sábado

    Tempo Temperatura Precipitação Vento Pressão Humidade
    00:00 +12°C° 0 mm 1 m/s 664 mmHg 97%
    01:00 +12°C° 0.1 mm 1 m/s 664 mmHg 97%
    02:00 +12°C° 0.1 mm 1 m/s 664 mmHg 97%
    03:00 +12°C° 0.1 mm 1 m/s 664 mmHg 97%
    04:00 +12°C° 0.2 mm 1 m/s 664 mmHg 97%
    05:00 +12°C° 0.2 mm 1 m/s 664 mmHg 97%
    06:00 +12°C° 0.2 mm 1 m/s 665 mmHg 97%
    07:00 +12°C° 0.2 mm 1 m/s 665 mmHg 95%
    08:00 +13°C° 0.2 mm 2 m/s 665 mmHg 94%
    09:00 +13°C° 0.2 mm 2 m/s 665 mmHg 92%
    10:00 +14°C° 0.2 mm 2 m/s 666 mmHg 88%
    11:00 +15°C° 0.2 mm 2 m/s 666 mmHg 84%
    12:00 +14°C° 0.2 mm 3 m/s 666 mmHg 80%
    13:00 +16°C° 0.2 mm 3 m/s 667 mmHg 76%
    14:00 +16°C° 0.2 mm 3 m/s 667 mmHg 72%
    15:00 +17°C° 0.2 mm 3 m/s 667 mmHg 69%
    16:00 +16°C° 0.1 mm 2 m/s 667 mmHg 71%
    17:00 +16°C° 0.1 mm 2 m/s 667 mmHg 74%
    18:00 +15°C° 0.1 mm 2 m/s 667 mmHg 76%
    19:00 +14°C° 0 mm 2 m/s 668 mmHg 83%
    20:00 +12°C° 0 mm 1 m/s 668 mmHg 89%
    21:00 +11°C° 0 mm 1 m/s 668 mmHg 96%
    22:00 +10°C° 0 mm 1 m/s 668 mmHg 93%
    23:00 +10°C° 0 mm 1 m/s 668 mmHg 91%
    Mostrar mais